User: anonymous   Login
Location: Albuquerque Trailhead
(34.7934°N, 106.3736°W)
Time: 22:59:33
(UTC+00:00)
Language:

CAS-4A - Orbit

View from above orbital plane
View from above orbital plane
View from above satellite
View from above satellite

Ground track
Ground track

The orbit data is extracted from the following two-line orbital elements,

1 42761U 17034D   24108.54932458  .00027563  00000-0  10619-2 0  9992
2 42761  43.0166 207.0409 0012604 310.6977  49.2779 15.25769581378139
Epoch (UTC): 17 April 2024 13:11:01
Eccentricity: 0.0012604
inclination: 43.0166°
perigee height: 480 km
apogee height: 497 km
right ascension of ascending node: 207.0409°
argument of perigee: 310.6977°
revolutions per day: 15.25769581
mean anomaly at epoch: 49.2779°
orbit number at epoch: 37813

The dashed part of the orbit path shows where the satellite is in the earth's shadow,  

DLR